STARLINK-31109 (58687 NORAD) Tracking and Keplerian Element Data

This shows tracking and keplerian element data for the satellite.

Feedback or suggestion? Click here.




ElementValue
Catalog58687
NameSTARLINK-31109
Epoch Orbit346
Epoch Day12.91667824
Epoch Year2024
RAAN204.0743
Inclination43.0004
Eccentricity0.0002085
Argument of Perigee257.7682
Mean Anonmoly348.7081
Mean Motion15.74140783
Decay Rate-0.01679819
L11 58687U 23211W 24012.91667824 -.01679819 00000+0 -12849-1 0 9992
L22 58687 43.0004 204.0743 0002085 257.7682 348.7081 15.74140783 3463



Live tracking and technical data element details for STARLINK-31109 (NORAD 58687). STARLINK-31109 can be tracked NOW for your location showing map with azimuth and elevation plus other details from your city location.







IsCatalogInMostPopularTable: catalog: 58687, numindb: 23
Update: records affected: 1



GetName: 58687 STARLINK-31109

Hit Count: updated at: Wed, 17 Apr 2024 03:22:40 GMT